Tracking 35275 objects as of 9-Sep-2026
HD Live streaming from Space Station
objects crossing your sky now

SL-12 R/B(1)


SL-12 R/B(1) is no longer on orbit


NORAD ID: 11709
Int'l Code: 1980-016B
Launch date: February 20, 1980
Source: Commonwealth of Independent States (former USSR) (CIS)
Launch site: TYURATAM MISSILE AND SPACE COMPLEX (TTMTR)
Decay date: 1980-02-22

Note: This is a ROCKET BODY
Your satellite tracking list
Your tracking list is empty




NASA's NSSDC Master Catalog

Two Line Element Set (TLE):
1 11709U 80016  B 80052.97729634  .05082723 +56699-4 +61728-4 0  9999
2 11709 051.6243 271.0048 0010351 292.7807 067.2128 16.44453859000238
Source of the keplerian elements: AFSPC